Flag for Canada Weather past 2 weeks in Kelowna, British Columbia, Canada

Now
68 °F

Sunny.


Feels Like: 68 °F
Forecast: 48 / 70 °F
Wind: 8 mph from South

Location: Kelowna Airport

Current Time: Aug 29, 2014 at 7:44:00 PM

Latest Report: Aug 29, 2014 at 7:00 PM


Visibility: 9 mi

Pressure: 29.83 "Hg

Humidity: 49%

Dew point: 48 °F

Location of KelownaLocation

Historic Weather in Kelowna — Graph

°F

Kelowna temperature yesterday

Maximum temperature yesterday: 77 °F (at 12:00 AM)
Minimum temperature yesterday: 57 °F (at 10:00 PM)
Average temperature yesterday: 65 °F

Past Weeks' High & Low Weather Summary

 TemperatureHumidityPressure
High91 °F (Aug 18, 4:00 PM)100% (Aug 15, 3:00 AM)30.20 "Hg (Aug 15, 3:00 AM)
Low46 °F (Aug 25, 5:00 AM)21% (Aug 27, 4:00 PM)29.64 "Hg (Aug 19, 3:53 PM)
Average68 °F64%29.95 "Hg
* Reported Aug 14 6:00 PM — Aug 29 6:00 PM, Kelowna, Weather by CustomWeather, © 2014

Note: Actual official high and low records may vary slightly from our data, if they occured in-between our weather recording intervals... More about our weather records

Advertising

Kelowna weather history for previous 24 hours

 ConditionsComfort  
Time TempWeatherWind HumidityBarometerVisibility
6:00 PM
Aug 29
68 °FSunny.9 mph49%29.84 "Hg9 mi
5:00 PM66 °FOvercast.5 mph60%29.86 "Hg9 mi
4:00 PM64 °FLight rain. Overcast.9 mph68%29.87 "Hg9 mi
3:00 PM70 °FPartly sunny.6 mph60%29.84 "Hg9 mi
2:01 PM68 °FPartly sunny.5 mph60%29.83 "Hg9 mi
12:00 PM68 °FPartly sunny.2 mph60%29.84 "Hg9 mi
11:00 AM68 °FPartly sunny.3 mph60%29.85 "Hg9 mi
10:00 AM64 °FPartly sunny.2 mph64%29.88 "Hg9 mi
9:00 AM61 °FScattered clouds.No wind72%29.90 "Hg9 mi
8:00 AM55 °FPassing clouds.2 mph82%29.92 "Hg9 mi
7:00 AM48 °FClear.No wind94%29.92 "Hg9 mi
6:00 AM48 °FClear.5 mph100%29.93 "Hg9 mi
5:00 AM50 °FClear.No wind94%29.93 "Hg9 mi
4:00 AM50 °FClear.5 mph94%29.93 "Hg9 mi
3:00 AM52 °FPassing clouds.2 mph88%29.95 "Hg9 mi
2:00 AM54 °FClear.No wind88%29.96 "Hg9 mi
1:00 AM54 °FClear.2 mph88%29.96 "Hg9 mi
12:00 AM57 °FClear.5 mph82%29.96 "Hg9 mi
11:00 PM
Aug 28
57 °FClear.5 mph88%29.97 "Hg9 mi
10:00 PM57 °FClear.2 mph88%29.96 "Hg9 mi
9:00 PM59 °FClear.3 mph88%29.95 "Hg9 mi
8:00 PM63 °FSunny.No wind83%29.96 "Hg9 mi
7:00 PM68 °FPassing clouds.2 mph69%29.96 "Hg9 mi
Weather by CustomWeather, © 2014

See weather overviewHow to use our weather pages